Location: Chenereilles
(45.4866°N, 4.0790°E)
Time: 15:04:36
(UTC+00:00)

Aureole 2 Rocket - Pass Details

Date: 12 November 2019
Orbit: 311 x 468 km, 73.9° (Epoch: 06 December)

Event Time Altitude Azimuth Distance (km) Brightness Sun altitude
Rises 16:45:31 0° 214° (SW) 2,314 7.0 -5.4°
Reaches altitude 10° 16:47:33 10° 221° (SW) 1,487 6.1 -5.8°
Maximum altitude 16:50:42 44° 295° (WNW) 607 3.5 -6.3°
Drops below altitude 10° 16:54:03 10° 10° (N) 1,578 4.9 -6.9°
Sets 16:56:16 0° 17° (NNE) 2,476 5.8 -7.2°
